TimeCDT,TemperatureF,Dew PointF,Humidity,Sea Level PressureIn,VisibilityMPH,Wind Direction,Wind SpeedMPH,Gust SpeedMPH,PrecipitationIn,Events,Conditions,WindDirDegrees,DateUTC
12:53 AM,63.0,61.0,93,29.83,10.0,NW,9.2,-,N/A,,Clear,320,2013-08-07 05:53:00
1:34 AM,62.6,60.8,94,29.86,10.0,NW,9.2,-,N/A,,Scattered Clouds,320,2013-08-07 06:34:00
1:48 AM,62.6,60.8,94,29.86,10.0,NW,8.1,-,N/A,,Mostly Cloudy,320,2013-08-07 06:48:00
1:53 AM,62.1,61.0,96,29.85,10.0,NW,10.4,-,N/A,,Mostly Cloudy,320,2013-08-07 06:53:00
2:53 AM,63.0,62.1,97,29.86,10.0,NNW,9.2,-,N/A,,Overcast,330,2013-08-07 07:53:00
3:53 AM,63.0,62.1,97,29.87,10.0,NNW,5.8,-,N/A,,Overcast,330,2013-08-07 08:53:00
4:53 AM,63.0,61.0,93,29.88,10.0,NW,8.1,-,N/A,,Overcast,320,2013-08-07 09:53:00
5:53 AM,63.0,61.0,93,29.89,10.0,NNW,4.6,-,N/A,,Overcast,330,2013-08-07 10:53:00
6:32 AM,62.6,60.8,94,29.92,10.0,NNW,6.9,-,N/A,,Overcast,340,2013-08-07 11:32:00
6:53 AM,63.0,60.1,90,29.91,10.0,North,6.9,-,N/A,,Overcast,350,2013-08-07 11:53:00
7:36 AM,62.6,59.0,88,29.94,10.0,NNW,8.1,-,N/A,,Mostly Cloudy,330,2013-08-07 12:36:00
7:53 AM,63.0,59.0,87,29.94,10.0,NNW,9.2,17.3,N/A,,Mostly Cloudy,340,2013-08-07 12:53:00
8:11 AM,62.6,57.2,82,29.96,10.0,North,9.2,-,N/A,,Mostly Cloudy,350,2013-08-07 13:11:00
8:51 AM,64.4,57.2,77,29.97,10.0,North,9.2,-,N/A,,Scattered Clouds,10,2013-08-07 13:51:00
8:53 AM,64.0,57.0,78,29.97,10.0,North,9.2,-,N/A,,Scattered Clouds,360,2013-08-07 13:53:00
9:53 AM,66.0,55.0,68,29.99,10.0,North,10.4,-,N/A,,Clear,360,2013-08-07 14:53:00
10:53 AM,68.0,54.0,61,30.00,10.0,North,6.9,-,N/A,,Clear,360,2013-08-07 15:53:00
11:53 AM,70.0,51.1,51,30.02,10.0,NNE,6.9,-,N/A,,Clear,20,2013-08-07 16:53:00
12:53 PM,72.0,52.0,49,30.01,10.0,Variable,6.9,-,N/A,,Clear,0,2013-08-07 17:53:00
1:53 PM,72.0,46.9,41,30.01,10.0,North,8.1,-,N/A,,Clear,360,2013-08-07 18:53:00
2:53 PM,73.0,48.0,41,30.01,10.0,NNE,8.1,-,N/A,,Clear,20,2013-08-07 19:53:00
3:53 PM,75.0,48.9,40,29.99,10.0,NNE,5.8,-,N/A,,Clear,20,2013-08-07 20:53:00
4:53 PM,75.0,46.9,37,29.99,10.0,NE,5.8,-,N/A,,Clear,50,2013-08-07 21:53:00
5:53 PM,73.9,50.0,43,29.99,10.0,Variable,3.5,-,N/A,,Clear,0,2013-08-07 22:53:00
6:53 PM,73.9,50.0,43,29.99,10.0,NE,3.5,-,N/A,,Clear,40,2013-08-07 23:53:00
7:53 PM,72.0,53.1,51,30.00,10.0,Calm,Calm,-,N/A,,Clear,0,2013-08-08 00:53:00
8:53 PM,69.1,52.0,54,30.01,10.0,Calm,Calm,-,N/A,,Clear,0,2013-08-08 01:53:00
9:53 PM,64.9,54.0,68,30.02,10.0,East,4.6,-,N/A,,Clear,80,2013-08-08 02:53:00
10:53 PM,62.1,54.0,75,30.03,10.0,Calm,Calm,-,N/A,,Clear,0,2013-08-08 03:53:00
11:53 PM,59.0,54.0,83,30.03,10.0,SE,4.6,-,N/A,,Clear,140,2013-08-08 04:53:00